Tracking 19564 objects as of 19-Mar-2019
HD Live streaming from Space Station
objects crossing your sky now

COSMOS 1904

Track COSMOS 1904 now!
10-day predictions
COSMOS 1904 is classified as:


NORAD ID: 18709
Int'l Code: 1987-106A
Perigee: 971.7 km
Apogee: 1,011.5 km
Inclination: 82.9 °
Period: 104.8 minutes
Semi major axis: 7362 km
RCS: 2.2337 m2 (large)
Launch date: December 23, 1987
Source: Commonwealth of Independent States (former USSR) (CIS)
Launch site: PLESETSK MISSILE AND SPACE COMPLEX (PKMTR)
aabbcc
Your satellite tracking list
Your tracking list is empty




NASA's NSSDC Master Catalog

Two Line Element Set (TLE):
1 18709U 87106A   19077.54248316 +.00000024 +00000-0 +99994-5 0  9995
2 18709 082.9126 237.3703 0027012 211.9454 197.0716 13.74226384566039
Source of the keplerian elements: AFSPC